[[{"header":{"parameterUnit":"m.s-1","parameterCategory":2,"la1":30.2992,"la2":30.254,"lo1":-89.0895,"lo2":-89.0443,"dy":0.0025,"dx":0.0025,"nx":19,"ny":19,"refTime":"2026-05-12T03:00:00:Z","depth":"0","parameterNumber":2,"parameterNumberName":"U-component_of_CURRENTS"},"data":[0,0,0,0.2095,0.2097,0.216,0.216,0.2171,0.2171,0,0,0,0,0,0,0,0,0,0,0,0.2067,0.2067,0.2095,0.2097,0.216,0.216,0.2171,0.2171,0,0,0,0,0,0,0,0,0,0,0,0.2067,0.2067,0.2067,0.2097,0.216,0.216,0.2171,0.214,0,0,0,0,0,0,0,0,0,0,0.2088,0.2058,0.2067,0.2067,0.2097,0.216,0.216,0.214,0.2142,0.2122,0,0.2131,0,0.2152,0.217,0.217,0,0,0,0.2096,0.2056,0.2088,0.2067,0.2098,0.2159,0.2131,0.2142,0.2144,0.2125,0.2131,0.2132,0.2153,0.217,0.217,0.2215,0.2216,0,0,0.2092,0.2063,0.2086,0.2089,0.2111,0.2129,0.2133,0.2144,0.2135,0.2131,0.2133,0.2153,0.217,0.2169,0.2215,0.2216,0,0,0,0.2083,0.206,0.2093,0.2088,0.2106,0.2131,0.2135,0.2134,0.2149,0.2134,0.2153,0.2169,0.2169,0.2214,0.2215,0.2194,0,0,0,0.2081,0.2056,0.2091,0.2073,0.2107,0.2127,0.2125,0.2148,0.2151,0.2153,0.2169,0.2169,0.2213,0.2215,0.2193,0.217,0,0,0,0.2064,0.2053,0.2064,0.2071,0.2102,0.2128,0.2144,0.215,0.2162,0.217,0.2169,0.2213,0.2214,0.2192,0.217,0.2199,0,0,0,0.2029,0.2035,0.2063,0.2071,0.2101,0.2144,0.2144,0.2167,0.2174,0.2169,0.2214,0.2215,0.2192,0.217,0.2198,0.2242,0.2249,0,0,0.2019,0.2032,0.204,0.2068,0.2105,0.2136,0.2161,0.217,0.2191,0.2203,0.2205,0.2193,0.217,0.2199,0.2324,0.2327,0,0,0,0.2027,0.2034,0.205,0.2076,0.2115,0.2144,0.2169,0.2187,0.2219,0.2204,0.2228,0.2215,0.2233,0.226,0.2264,0.2418,0.2221,0.2221,0.2221,0.1974,0.2012,0.2025,0.2074,0.2098,0.215,0.2173,0.2207,0.2218,0.2246,0.2223,0.2264,0.2294,0.2297,0.2457,0.2261,0.2261,0.2261,0.2261,0.1962,0.1969,0.2007,0.2034,0.2074,0.2099,0.2163,0.2189,0.2238,0.2245,0.2265,0.2268,0.23,0.2469,0.226,0.2261,0.2261,0.2261,0.2261,0.1927,0.1934,0.1954,0.1984,0.2007,0.2059,0.2089,0.2144,0.2216,0.2233,0.2297,0.2297,0.2423,0.2258,0.2258,0.2258,0.2258,0.2258,0.2258,0.1876,0.1901,0.1898,0.1931,0.1929,0.1958,0.2041,0.2096,0.2215,0.228,0.2281,0.2475,0.2264,0.2238,0.2259,0.2259,0.2258,0.2258,0.2258,0.1843,0.1848,0.1839,0.1831,0.1826,0.1836,0.1947,0.2126,0.2205,0.2293,0.2543,0.2322,0.2335,0.2334,0.2311,0.235,0.235,0.235,0.235,0.1804,0.1814,0.1773,0.1731,0.1716,0.1761,0.1891,0.2105,0.2435,0.2607,0.2669,0.2701,0.2691,0.2727,0.2717,0.2703,0.284,0.2841,0.2842,0.1781,0.1771,0.1719,0.1679,0.1645,0.1692,0.1838,0.211,0.2611,0.2877,0.288,0.2859,0.292,0.289,0.2954,0.2927,0.2906,0,0]},{"header":{"parameterUnit":"m.s-1","parameterCategory":2,"la1":30.2992,"la2":30.254,"lo1":-89.0895,"lo2":-89.0443,"dy":0.0025,"dx":0.0025,"nx":19,"ny":19,"refTime":"2026-05-12T03:00:00:Z","depth":"0","parameterNumber":3,"parameterNumberName":"V-component_of_CURRENTS"},"data":[0,0,0,-0.1231,-0.1237,-0.1515,-0.1516,-0.1655,-0.1656,0,0,0,0,0,0,0,0,0,0,0,-0.1112,-0.1114,-0.123,-0.1237,-0.1515,-0.1516,-0.1655,-0.1656,0,0,0,0,0,0,0,0,0,0,0,-0.1112,-0.1113,-0.1115,-0.1238,-0.1514,-0.1516,-0.1655,-0.15,0,0,0,0,0,0,0,0,0,0,-0.1258,-0.1158,-0.1113,-0.1115,-0.124,-0.1514,-0.1516,-0.1495,-0.151,-0.1466,0,-0.1502,0,-0.1585,-0.166,-0.166,0,0,0,-0.1242,-0.1146,-0.1243,-0.1115,-0.1242,-0.1514,-0.1391,-0.1505,-0.1521,-0.1484,-0.1505,-0.1512,-0.1588,-0.166,-0.1661,-0.1607,-0.1606,0,0,-0.1226,-0.1141,-0.1233,-0.1253,-0.13,-0.1382,-0.1399,-0.1517,-0.1507,-0.1505,-0.1517,-0.159,-0.1661,-0.1661,-0.1608,-0.1606,0,0,0,-0.1179,-0.1129,-0.1229,-0.1245,-0.1315,-0.139,-0.141,-0.1503,-0.1543,-0.152,-0.1592,-0.1661,-0.1662,-0.1609,-0.1607,-0.1523,0,0,0,-0.117,-0.1104,-0.1221,-0.1171,-0.1314,-0.1438,-0.1391,-0.1534,-0.1552,-0.1591,-0.1661,-0.1662,-0.161,-0.1608,-0.1528,-0.1468,0,0,0,-0.1102,-0.1096,-0.113,-0.1166,-0.1292,-0.144,-0.1487,-0.1541,-0.1594,-0.166,-0.1663,-0.1611,-0.1608,-0.1532,-0.1476,-0.1377,0,0,0,-0.1005,-0.106,-0.1127,-0.121,-0.1289,-0.1434,-0.1488,-0.1584,-0.1637,-0.1661,-0.161,-0.1607,-0.1533,-0.1481,-0.1382,-0.1209,-0.117,0,0,-0.1029,-0.1059,-0.1117,-0.1187,-0.1323,-0.1397,-0.1446,-0.1534,-0.1573,-0.1559,-0.1561,-0.1526,-0.1477,-0.1378,-0.1066,-0.1031,0,0,0,-0.1099,-0.1139,-0.1193,-0.1288,-0.1391,-0.1414,-0.1509,-0.149,-0.149,-0.1597,-0.1499,-0.1469,-0.141,-0.1317,-0.1288,-0.1252,-0.1596,-0.1596,-0.1596,-0.1018,-0.1122,-0.1199,-0.1316,-0.1364,-0.1413,-0.1394,-0.1369,-0.1434,-0.1385,-0.1382,-0.1221,-0.1119,-0.1096,-0.1061,-0.1373,-0.1372,-0.1372,-0.1372,-0.1066,-0.1108,-0.1181,-0.129,-0.1292,-0.1299,-0.1253,-0.1254,-0.1161,-0.1245,-0.1193,-0.1209,-0.1059,-0.1033,-0.1366,-0.1367,-0.1368,-0.1368,-0.1369,-0.1008,-0.1031,-0.1113,-0.1202,-0.118,-0.1194,-0.1049,-0.1059,-0.1064,-0.1017,-0.0916,-0.0916,-0.0907,-0.1,-0.1,-0.0999,-0.0998,-0.0998,-0.0997,-0.0891,-0.0976,-0.1015,-0.11,-0.108,-0.1006,-0.0923,-0.0834,-0.0762,-0.0774,-0.0773,-0.0815,-0.1107,-0.1138,-0.0986,-0.0988,-0.099,-0.0991,-0.0991,-0.0842,-0.0863,-0.0914,-0.0917,-0.0856,-0.0603,-0.0603,-0.0375,-0.0363,-0.0279,-0.0421,-0.0634,-0.0634,-0.0656,-0.0676,-0.0413,-0.0413,-0.0413,-0.0413,-0.0755,-0.0792,-0.079,-0.0735,-0.0593,-0.04,0.0072,0.0203,0.0084,0.0007,-0.0166,-0.0222,-0.0248,-0.0233,-0.0264,-0.028,0.0078,0.0078,0.0078,-0.0716,-0.0725,-0.0664,-0.0634,-0.0454,-0.0082,0.0495,0.085,0.0487,0.0092,-0.0144,-0.0165,-0.0267,-0.031,-0.0313,-0.0361,-0.0398,0,0]}],[{"header":{"parameterUnit":"m.s-1","parameterCategory":2,"la1":30.2992,"la2":30.254,"lo1":-89.0895,"lo2":-89.0443,"dy":0.0025,"dx":0.0025,"nx":19,"ny":19,"refTime":"2026-05-12T03:00:00:Z","depth":"2","parameterNumber":2,"parameterNumberName":"U-component_of_CURRENTS"},"data":[0,0,0,0.1535,0.1534,0.1523,0.1523,0.1593,0.1593,0,0,0,0,0,0,0,0,0,0,0,0.1541,0.1541,0.1535,0.1534,0.1523,0.1523,0.1592,0.1593,0,0,0,0,0,0,0,0,0,0,0,0.1541,0.1541,0.1541,0.1534,0.1523,0.1523,0.1592,0.1583,0,0,0,0,0,0,0,0,0,0,0.1584,0.1582,0.1541,0.1541,0.1534,0.1523,0.1523,0.1581,0.1583,0.1618,0,0.1608,0,0.1598,0.1599,0.1599,0,0,0,0.1545,0.158,0.1567,0.1541,0.1534,0.1523,0.1531,0.1582,0.1584,0.1621,0.1609,0.1611,0.16,0.1599,0.16,0.1705,0.1706,0,0,0.1545,0.1554,0.1565,0.1568,0.1521,0.1531,0.153,0.1582,0.1589,0.1609,0.1612,0.1601,0.16,0.1601,0.1705,0.1705,0,0,0,0.154,0.1554,0.1539,0.1566,0.1555,0.1531,0.153,0.1587,0.1578,0.1612,0.1602,0.16,0.1602,0.1704,0.1705,0.1707,0,0,0,0.1541,0.155,0.1539,0.1546,0.1553,0.1561,0.1533,0.1575,0.158,0.1601,0.1601,0.1602,0.1704,0.1705,0.1706,0.1696,0,0,0,0.1543,0.1551,0.1543,0.1546,0.1534,0.1559,0.1554,0.1575,0.1574,0.1599,0.1603,0.1703,0.1704,0.1705,0.1694,0.1747,0,0,0,0.1561,0.1518,0.1544,0.1507,0.1534,0.1534,0.1553,0.1568,0.1588,0.1601,0.1704,0.1705,0.1704,0.1694,0.1746,0.184,0.1855,0,0,0.1506,0.1512,0.149,0.1511,0.1489,0.1537,0.1559,0.1593,0.1625,0.1693,0.1695,0.1706,0.1694,0.1747,0.1913,0.1925,0,0,0,0.1472,0.1457,0.1457,0.1455,0.1474,0.1528,0.1568,0.1611,0.1679,0.164,0.1732,0.1724,0.1757,0.1812,0.1822,0.1711,0.1711,0.1711,0.171,0.1429,0.143,0.1406,0.1422,0.1451,0.1532,0.1589,0.1665,0.1689,0.1732,0.1745,0.181,0.1869,0.1878,0.1773,0.1773,0.1773,0.1773,0.1773,0.1355,0.1333,0.1382,0.1355,0.144,0.1488,0.1624,0.1671,0.1781,0.1778,0.1811,0.1834,0.1889,0.1774,0.1774,0.1774,0.1774,0.1774,0.1774,0.1317,0.1302,0.1303,0.1309,0.1373,0.1473,0.1579,0.1682,0.1778,0.1819,0.1916,0.1917,0.1808,0.1853,0.1853,0.1853,0.1853,0.1853,0.1853,0.1268,0.1265,0.1242,0.1265,0.1292,0.1388,0.1559,0.1663,0.1847,0.193,0.1932,0.1837,0.1834,0.1814,0.1856,0.1856,0.1856,0.1855,0.1855,0.1169,0.1195,0.1157,0.1163,0.123,0.1329,0.1494,0.1774,0.1899,0.2014,0.2015,0.201,0.2023,0.2017,0.2002,0.209,0.209,0.209,0.209,0.1117,0.1122,0.1086,0.1092,0.1154,0.13,0.1486,0.1633,0.1864,0.1921,0.1926,0.1898,0.1896,0.1898,0.1894,0.1875,0.1929,0.1928,0.1927,0.105,0.1062,0.1024,0.1049,0.1112,0.1291,0.1436,0.1498,0.1716,0.1903,0.1715,0.2115,0.2093,0.2081,0.2099,0.2086,0.2061,0,0]},{"header":{"parameterUnit":"m.s-1","parameterCategory":2,"la1":30.2992,"la2":30.254,"lo1":-89.0895,"lo2":-89.0443,"dy":0.0025,"dx":0.0025,"nx":19,"ny":19,"refTime":"2026-05-12T03:00:00:Z","depth":"2","parameterNumber":3,"parameterNumberName":"V-component_of_CURRENTS"},"data":[0,0,0,0.0201,0.0194,-0.0159,-0.0161,-0.0369,-0.037,0,0,0,0,0,0,0,0,0,0,0,0.0344,0.0342,0.0202,0.0193,-0.0159,-0.0161,-0.0368,-0.037,0,0,0,0,0,0,0,0,0,0,0,0.0345,0.0342,0.034,0.0192,-0.0159,-0.0161,-0.0368,-0.0163,0,0,0,0,0,0,0,0,0,0,0.015,0.0242,0.0343,0.034,0.019,-0.0159,-0.0161,-0.0155,-0.0175,-0.0139,0,-0.0193,0,-0.029,-0.0378,-0.0378,0,0,0,0.0192,0.0258,0.0164,0.0339,0.0187,-0.0158,-0.0001,-0.0168,-0.019,-0.0164,-0.0197,-0.0208,-0.0294,-0.0379,-0.0379,-0.0419,-0.0419,0,0,0.0212,0.0279,0.0179,0.015,0.01,0.0011,-0.0011,-0.0185,-0.0199,-0.0198,-0.0214,-0.0297,-0.038,-0.038,-0.042,-0.0419,0,0,0,0.0268,0.0293,0.0198,0.0162,0.0075,0.0001,-0.0025,-0.0192,-0.0224,-0.0217,-0.0299,-0.038,-0.0382,-0.042,-0.0419,-0.0332,0,0,0,0.028,0.0325,0.0208,0.0244,0.0077,-0.0099,-0.0027,-0.0212,-0.0236,-0.0298,-0.038,-0.0383,-0.0421,-0.042,-0.0336,-0.0288,0,0,0,0.0359,0.0333,0.0294,0.0249,0.0093,-0.01,-0.0144,-0.0221,-0.0284,-0.0378,-0.0383,-0.0421,-0.042,-0.0339,-0.0294,-0.0247,0,0,0,0.0439,0.038,0.0296,0.0208,0.0096,-0.0043,-0.0145,-0.027,-0.0346,-0.0381,-0.0421,-0.0419,-0.034,-0.0298,-0.0251,-0.0097,-0.0067,0,0,0.0414,0.0379,0.0328,0.0243,0.0137,0.0005,-0.0069,-0.0223,-0.0307,-0.0348,-0.0352,-0.0334,-0.0295,-0.0248,-0.003,-0.0002,0,0,0,0.0353,0.0318,0.0272,0.0178,0.0073,0.001,-0.0146,-0.0192,-0.0286,-0.0353,-0.0335,-0.0313,-0.0286,-0.0201,-0.0179,-0.0414,-0.0414,-0.0414,-0.0414,0.0409,0.0336,0.0271,0.0182,0.0126,0.0009,-0.0032,-0.0114,-0.0212,-0.0231,-0.0242,-0.0147,-0.0055,-0.0037,-0.0249,-0.0249,-0.0249,-0.0248,-0.0248,0.0379,0.0333,0.0288,0.0191,0.0163,0.0109,0.0057,-0.001,-0.0051,-0.0146,-0.0125,-0.0114,-0.0007,-0.0241,-0.0242,-0.0243,-0.0244,-0.0245,-0.0245,0.0402,0.0378,0.0302,0.022,0.0201,0.0145,0.0182,0.0102,0.0024,0.0041,0.0088,0.0088,-0.0091,0.0021,0.0021,0.0022,0.0022,0.0022,0.0023,0.0452,0.0388,0.0319,0.0247,0.0235,0.024,0.0223,0.0248,0.0247,0.0206,0.0207,-0.0056,-0.0065,-0.0076,0.0029,0.0028,0.0027,0.0027,0.0026,0.0437,0.04,0.0327,0.0294,0.0316,0.0469,0.0437,0.0553,0.0526,0.0581,0.0313,0.0304,0.029,0.0273,0.027,0.0459,0.0459,0.0459,0.0459,0.0441,0.0413,0.0335,0.0348,0.0453,0.0583,0.081,0.0778,0.0675,0.0547,0.0542,0.0508,0.0492,0.0483,0.0461,0.0459,0.0696,0.0696,0.0696,0.0414,0.0398,0.0367,0.0374,0.0526,0.0776,0.1005,0.0929,0.0712,0.0692,0.045,0.05,0.0438,0.0416,0.0386,0.0358,0.0347,0,0]}],[{"header":{"parameterUnit":"m.s-1","parameterCategory":2,"la1":30.2992,"la2":30.254,"lo1":-89.0895,"lo2":-89.0443,"dy":0.0025,"dx":0.0025,"nx":19,"ny":19,"refTime":"2026-05-12T03:00:00:Z","depth":"4","parameterNumber":2,"parameterNumberName":"U-component_of_CURRENTS"},"data":[0,0,0,0.0421,0.0423,0.0575,0.0576,0.0672,0.0673,0,0,0,0,0,0,0,0,0,0,0,0.0398,0.0399,0.0421,0.0424,0.0575,0.0576,0.0672,0.0673,0,0,0,0,0,0,0,0,0,0,0,0.0397,0.0398,0.04,0.0424,0.0575,0.0576,0.0672,0.0591,0,0,0,0,0,0,0,0,0,0,0.046,0.0428,0.0398,0.04,0.0424,0.0575,0.0576,0.0589,0.0596,0.0564,0,0.0589,0,0.06,0.0673,0.0673,0,0,0,0.0462,0.0422,0.0461,0.04,0.0425,0.0574,0.0518,0.0594,0.0602,0.0572,0.059,0.0594,0.0601,0.0673,0.0673,0.0666,0.0666,0,0,0.0454,0.0426,0.0455,0.0466,0.0464,0.0512,0.0522,0.0601,0.0606,0.0591,0.0596,0.0603,0.0673,0.0673,0.0666,0.0666,0,0,0,0.0404,0.042,0.046,0.0462,0.0479,0.0516,0.0527,0.0605,0.0618,0.0597,0.0604,0.0673,0.0673,0.0666,0.0666,0.0754,0,0,0,0.0401,0.0388,0.0456,0.0442,0.0478,0.0551,0.0528,0.0614,0.0622,0.0604,0.0673,0.0674,0.0666,0.0666,0.0752,0.08,0,0,0,0.0391,0.0386,0.0405,0.044,0.0485,0.0551,0.0572,0.0618,0.0623,0.0673,0.0674,0.0667,0.0666,0.0751,0.0795,0.0863,0,0,0,0.0358,0.038,0.0404,0.0434,0.0483,0.0555,0.0572,0.0636,0.0681,0.0673,0.0666,0.0666,0.075,0.0793,0.086,0.0669,0,0,0,0.0363,0.038,0.0399,0.0423,0.0494,0.0537,0.0596,0.0661,0.0658,0.064,0.0642,0.0753,0.0795,0.0863,0.0647,0,0,0,0,0.0385,0.0408,0.0435,0.0482,0.0532,0.0598,0.0643,0.0661,0.0709,0.0674,0.072,0.0744,0.0784,0.0661,0.0664,0.0664,0.0664,0.0664,0.0664,0.0373,0.0412,0.046,0.052,0.0564,0.0635,0.0687,0.0708,0.0711,0.0736,0.0792,0.0869,0.0736,0.0757,0.0758,0.0758,0.0758,0.0758,0.0759,0.0389,0.0416,0.0479,0.0548,0.0613,0.0672,0.0732,0.0766,0.085,0.082,0.0857,0.073,0.0767,0.0765,0.0764,0.0763,0.0762,0.0762,0.0761,0.0374,0.0393,0.0459,0.0551,0.065,0.0729,0.0809,0.0899,0.0933,0.0987,0.0886,0.0935,0.0958,0.1041,0.1041,0.1042,0.1042,0.1043,0.1043,0.033,0.0391,0.0438,0.0554,0.0637,0.0753,0.0903,0.0917,0.0994,0.0966,0.1051,0.0965,0.0955,0.0972,0.1051,0.1049,0.1048,0.1048,0.1047,0.0301,0.0316,0.0384,0.0458,0.0623,0.0681,0.086,0.0885,0.0927,0.0885,0.0935,0.0938,0.0897,0.089,0.0903,0.0964,0.0962,0.096,0,0.0251,0.0264,0.0322,0.0408,0.0491,0.063,0.0642,0.068,0.0752,0.0779,0.0851,0.0906,0.0908,0.0853,0.0844,0.0853,0,0,0,0.0211,0.0233,0.0242,0.0329,0.0425,0.0517,0.0631,0.0625,0.0824,0.0702,0.0907,0.0921,0.0809,0.1074,0.1019,0.1008,0.1032,0,0]},{"header":{"parameterUnit":"m.s-1","parameterCategory":2,"la1":30.2992,"la2":30.254,"lo1":-89.0895,"lo2":-89.0443,"dy":0.0025,"dx":0.0025,"nx":19,"ny":19,"refTime":"2026-05-12T03:00:00:Z","depth":"4","parameterNumber":3,"parameterNumberName":"V-component_of_CURRENTS"},"data":[0,0,0,0.0455,0.0456,0.0547,0.0548,0.0615,0.0615,0,0,0,0,0,0,0,0,0,0,0,0.0452,0.0452,0.0455,0.0456,0.0547,0.0549,0.0615,0.0615,0,0,0,0,0,0,0,0,0,0,0,0.0452,0.0452,0.0453,0.0456,0.0547,0.0549,0.0615,0.0571,0,0,0,0,0,0,0,0,0,0,0.0493,0.0484,0.0452,0.0453,0.0456,0.0547,0.0549,0.057,0.0574,0.0543,0,0.0545,0,0.0543,0.0613,0.0613,0,0,0,0.0508,0.0481,0.0485,0.0453,0.0456,0.0547,0.0521,0.0573,0.0577,0.0547,0.0546,0.0548,0.0544,0.0613,0.0613,0.0544,0.0544,0,0,0.0502,0.0492,0.0482,0.0487,0.0462,0.0517,0.0523,0.0576,0.0583,0.0546,0.0549,0.0545,0.0613,0.0613,0.0545,0.0544,0,0,0,0.0453,0.0488,0.0494,0.0484,0.0484,0.0519,0.0525,0.0583,0.0578,0.055,0.0546,0.0613,0.0613,0.0545,0.0545,0.0557,0,0,0,0.0453,0.0455,0.0491,0.049,0.0482,0.0539,0.053,0.0576,0.0581,0.0546,0.0613,0.0613,0.0546,0.0545,0.0558,0.0589,0,0,0,0.0451,0.0455,0.0456,0.0488,0.0499,0.0538,0.0542,0.0579,0.0575,0.0613,0.0613,0.0547,0.0545,0.0559,0.0589,0.0552,0,0,0,0.0452,0.0452,0.0457,0.0469,0.0497,0.0535,0.0542,0.0594,0.0632,0.0613,0.0546,0.0545,0.0559,0.0589,0.0553,0.052,0,0,0,0.0449,0.0451,0.0461,0.0466,0.0509,0.0527,0.0544,0.0598,0.0589,0.0535,0.0535,0.0558,0.0589,0.0552,0.0436,0,0,0,0,0.046,0.0479,0.0495,0.052,0.0535,0.0547,0.0577,0.0561,0.0552,0.0591,0.0525,0.0545,0.0521,0.0502,0.0538,0.0538,0.0538,0.0538,0.0538,0.0479,0.0496,0.0534,0.0557,0.0565,0.0563,0.0556,0.0524,0.0533,0.051,0.0529,0.048,0.0457,0.0486,0.0486,0.0487,0.0487,0.0487,0.0487,0.0516,0.0536,0.0566,0.0625,0.061,0.0623,0.0537,0.0527,0.047,0.0488,0.0463,0.0486,0.0487,0.0487,0.0487,0.0487,0.0487,0.0487,0.0487,0.0524,0.0533,0.0613,0.0695,0.0718,0.0694,0.0639,0.0597,0.0509,0.048,0.045,0.0478,0.0505,0.0477,0.0477,0.0477,0.0477,0.0477,0.0477,0.0502,0.0569,0.066,0.0753,0.0825,0.0829,0.0739,0.0628,0.0531,0.0467,0.0506,0.0477,0.0477,0.0502,0.0476,0.0476,0.0476,0.0476,0.0477,0.0496,0.0538,0.0674,0.0774,0.0899,0.0852,0.0821,0.0588,0.0471,0.0341,0.0423,0.0426,0.0418,0.0419,0.0443,0.0398,0.0398,0.0397,0,0.0473,0.0496,0.0652,0.0781,0.0824,0.0837,0.0655,0.0504,0.0368,0.0416,0.0384,0.0484,0.0484,0.0481,0.0481,0.0511,0,0,0,0.0472,0.0517,0.0577,0.0706,0.0769,0.0645,0.0575,0.0493,0.0505,0.0282,0.0384,0.0388,0.0341,0.0474,0.0468,0.0469,0.0509,0,0]}]]